Regional Weather Roundup
Issued by NWS

Home | Current Version | Previous Version | Text Only | Print | Product List | Glossary Off
Versions: 1 2 3 4 5 6 7 8 9 10 11 12 13 14 15 16 17 18 19 20 21 22 23 24 25 26 27 28 29 30 31 32 33 34 35 36 37 38 39 40 41 42 43 44 45 46 47 48 49 50

829
ASUS44 KJAN 290103
RWRMS

MISSISSIPPI HOURLY WEATHER ROUNDUP
NATIONAL WEATHER SERVICE JACKSON MS
700 PM CST WED JAN 28 2015

NOTE: "FAIR: INDICATES FEW OR NO CLOUDS BELOW 12,000 FEET WITH NO
SIGNIFICANT WEATHER AND/OR OBSTRUCTIONS TO VISIBILITY.

MSZ001>002-007>008-010>013-018>021-025>028-034>036-290200-
NORTHWEST MISSISSIPPI

CITY           SKY/WX    TMP DP  RH WIND       PRES   REMARKS
CLARKSDALE     FAIR      52  41  66 SE8       30.11F
CLEVELAND      FAIR      56  42  60 SE6       30.10F
GREENWOOD      PTCLDY    54  37  52 S8        30.13F
GREENVILLE     MOCLDY    59  39  47 SE12      30.10F
GRENADA        FAIR      50  36  57 SE8       30.14S
OLIVE BRANCH   PTCLDY    52  34  50 S10       30.10F
OXFORD         FAIR      50  32  50 SE8       30.15F
TUNICA         MOCLDY    50  37  62 SE12      30.10F
$$

MSZ003>006-009-014>017-022>024-029>033-037>039-290200-
NORTHEAST MISSISSIPPI

CITY           SKY/WX    TMP DP  RH WIND       PRES   REMARKS
COLUMBUS AFB   NOT AVBL
CORINTH        FAIR      46  32  57 SE6       30.14F
STARKVILLE     FAIR      46  32  57 CALM      30.19F
TUPELO         PTCLDY    49  31  49 S7        30.17F
$$

MSZ040-058-290200-
CENTRAL MISSISSIPPI

CITY           SKY/WX    TMP DP  RH WIND       PRES   REMARKS
JACKSON INTL   PTCLDY    54  37  52 SE10      30.18S
JACKSON HAWKNS NOT AVBL
MERIDIAN KEY   CLEAR     45  35  68 S3        30.22S
MERIDIAN NAS   PTCLDY    51  29  42 SE7       30.22S
RAYMOND        FAIR      59  54  82 MISG      30.16F
VICKSBURG      MOCLDY    62  40  44 S10       30.13F
$$

MSZ059>079-290200-
SOUTH MISSISSIPPI

CITY           SKY/WX    TMP DP  RH WIND       PRES   REMARKS
BROOKHAVEN     FAIR      55  39  54 CALM      30.20F
HATTIESBURG    PTCLDY    51  40  65 CALM      30.23S
MCCOMB         MOCLDY    54  40  59 S8        30.20F
NATCHEZ        MOCLDY    63  37  39 S10       30.16F
PINE BELT      PTCLDY    48  37  66 CALM      30.23F
$$

MSZ080>082-290200-
COASTAL MISSISSIPPI

CITY           SKY/WX    TMP DP  RH WIND       PRES   REMARKS
BAY ST LOUIS   CLEAR     46  41  81 CALM      30.25S
BILOXI         NOT AVBL
PASCAGOULA     CLEAR     45  42  89 CALM      30.26R
GULFPORT       CLEAR     49  44  83 SE3       30.25S
$$



USA.gov is the U.S. government's official web portal to all federal, state and local government web resources and services.